PulseSat

PulseSat

COSMOS 2425 (716)

Last updated on Jan. 17, 2019, 2:58 a.m. UTC

1 29670U 06062A   19016.66702762  .00000003  00000-0  10000-3 0  9998
2 29670  65.1769 285.3173 0022948 345.0398  63.2216  2.13104819 93861
UTC
Height (km)
Latitude
Longitude
Inclination
Orbital Period

Next 30 passes for location: Hong Kong

Rise time Rise Azimuth (degrees) Set time Set Azimuth (degrees) Duration Max altitude (degrees)

No matching passes for this satellites

PulseSat

PulseSat is the new satellites software and hardware trackering solution by Pulsely.
Satellite Two Line Element Set source: US Air Force Space Command

Download PulseSat for iOS
© 2017 Pulsely Limited